Погода в Киброне

Франция     47°29′07″N   3°07′16″W
темп.,
°C
ветер,
м/с
пор.,
м/с
влажн.,
%
обл.,
%
осадки,
мм/ч
давл.,
гПа
погр.,
м
26 февраля, пт
пт2601:00+8с588046 0.0 1035298
04:00+7ссв58800 0.0 1035291
07:00+7ссв57820 0.0 1036287
10:00+7ссв68800 0.0 1036332
13:00+9св46710 0.0 1037569
16:00+10св34710 0.0 103653
19:00+10ссв68760 0.0 1036263
22:00+8св710810 0.0 1038331
27 февраля, сб
сб2701:00+8св79810 0.0 1039331
04:00+7св78770 0.0 1038291
07:00+6св78740 0.0 1038287
10:00+6св811680 0.0 1039393
13:00+9всв710620 0.0 1038842
16:00+10св69700 0.0 1036316
19:00+10св610770 0.0 1035392
22:00+8св913780 0.0 1035519
28 февраля, вс
вс2801:00+7св913790 0.0 1035532
04:00+7св912820 0.0 1033475
07:00+6св912820 0.0 1032393
10:00+7всв1014750 0.0 1031602
13:00+9всв913690 0.0 1031790
16:00+10всв812710 0.0 1028541
19:00+10всв813760 0.0 1028689
22:00+9в1014740 0.0 1029817
1 марта, пн
пн101:00+8всв912790 0.0 1028553
04:00+7всв1012810 0.0 1027466
07:00+6всв1013830 0.0 1026447
10:00+6в10128529 0.0 1025417
13:00+9в898250 0.0 1025442
16:00+11вюв56820 0.0 1023101
19:00+10юв34850 0.0 102342
22:00+11в811881 0.0 1024156
2 марта, вт
вт201:00+11вюв9138731 0.0 1024233
04:00+11юв7108860 0.0 1024152
07:00+10юв8109080 0.8 1024266
10:00+10юв10138887 0.8 1026349
13:00+10юв9128689 1.9 1027325
16:00+10ююв71089100 0.1 1026221
19:00+10ююв679150 0.1 1027123
22:00+11ююз55917 0.0 102953